Mekoryuk, AK

6:22 PM AKST on November 18, 2017 (GMT -0900)
Mekoryuk

Weather History for PAMY - March, 2013

Change the Weather History Date:

Sunday, March 3, 2013

  Actual Average Record
Temperature  
Mean Temperature 16 °F -  
Max Temperature 19 °F 20 °F 33 °F (2008)
Min Temperature 12 °F 11 °F -13 °F (2012)
Degree Days  
Heating Degree Days 50    
Moisture  
Dew Point 14 °F    
Average Humidity 86    
Maximum Humidity 100    
Minimum Humidity 73    
Precipitation  
Precipitation 0.00 in - - ()
Sea Level Pressure  
Sea Level Pressure 29.99 in    
Wind  
Wind Speed 2 mph (ESE)    
Max Wind Speed 16 mph    
Max Gust Speed -    
Visibility 10 miles    
Events      
Averages and records for this station are not official NWS values.
T = Trace of Precipitation, MM = Missing Value Source: NWS Daily Summary

Daily Weather History Graph

Daily Weather History Graph

Search for Another Location

Airport or City:

Trip Planner

Search our weather history database for the weather conditions in past years. The results will help you decide how hot, cold, wet, or windy it might be!

Date:

Astronomy

Mar. 03, 2013 Rise Set
Actual Time 8:56 AM AKST 7:38 PM AKST
Civil Twilight 8:14 AM AKST 8:20 PM AKST
Nautical Twilight 7:25 AM AKST 9:09 PM AKST
Astronomical Twilight 6:36 AM AKST 9:59 PM AKST
Moon 3:15 AM AKST (3/3) 10:34 AM AKST (3/3)
Length of Visible Light 12h 06m
Length of Day
10h 41m
Waning Gibbous, 62% of the Moon is Illuminated
Mar 3
Waning Gibbous
Mar 4
Last Quarter
Mar 11
New
Mar 19
First Quarter
Mar 27
Full

Hourly Weather History & Observations

Time (AKST) Temp. Windchill Dew Point Humidity Pressure Visibility Wind Dir Wind Speed Gust Speed Precip Events Conditions
12:16 AM 17.6 °F - 15.8 °F 93% 29.86 in 10.0 mi Calm Calm - N/A   Overcast
12:56 AM 17.6 °F - 12.2 °F 79% 29.87 in 10.0 mi Calm Calm - N/A   Overcast
1:16 AM 17.6 °F - 14.0 °F 86% 29.87 in 10.0 mi Calm Calm - N/A   Overcast
1:36 AM 17.6 °F - 14.0 °F 86% 29.88 in 10.0 mi Calm Calm - N/A   Overcast
1:56 AM 17.6 °F - 15.8 °F 93% 29.89 in 10.0 mi Calm Calm - N/A   Overcast
2:16 AM 17.6 °F - 14.0 °F 86% 29.90 in 10.0 mi Calm Calm - N/A   Overcast
2:36 AM 17.6 °F - 15.8 °F 93% 29.91 in 10.0 mi Calm Calm - N/A   Overcast
2:56 AM 17.6 °F - 14.0 °F 86% 29.92 in 10.0 mi Calm Calm - N/A   Overcast
3:16 AM 17.6 °F - 14.0 °F 86% 29.92 in 10.0 mi Calm Calm - N/A   Overcast
3:36 AM 17.6 °F - 15.8 °F 93% 29.93 in 10.0 mi Calm Calm - N/A   Overcast
3:56 AM 17.6 °F - 15.8 °F 93% 29.94 in 10.0 mi Calm Calm - N/A   Overcast
4:16 AM 17.6 °F - 15.8 °F 93% 29.94 in 10.0 mi Calm Calm - N/A   Overcast
4:36 AM 19.4 °F - 15.8 °F 86% 29.94 in 10.0 mi Calm Calm - N/A   Overcast
4:56 AM 19.4 °F - 15.8 °F 86% 29.95 in 10.0 mi Calm Calm - N/A   Overcast
5:16 AM 19.4 °F - 15.8 °F 86% 29.97 in 10.0 mi Calm Calm - N/A   Overcast
5:36 AM 19.4 °F 12.8 °F 17.6 °F 93% 29.97 in 10.0 mi NW 4.6 mph - N/A   Overcast
5:56 AM 19.4 °F - 15.8 °F 86% 29.98 in 10.0 mi Calm Calm - N/A   Overcast
6:16 AM 19.4 °F - 15.8 °F 86% 29.99 in 10.0 mi Calm Calm - N/A   Overcast
6:36 AM 19.4 °F - 15.8 °F 86% 29.99 in 10.0 mi Calm Calm - N/A   Overcast
6:56 AM 19.4 °F - 17.6 °F 93% 29.99 in 10.0 mi Calm Calm - N/A   Overcast
7:16 AM 19.4 °F - 15.8 °F 86% 30.00 in 10.0 mi Calm Calm - N/A   Overcast
7:36 AM 17.6 °F - 15.8 °F 93% 30.00 in 10.0 mi Calm Calm - N/A   Overcast
7:56 AM 19.4 °F 10.4 °F 14.0 °F 80% 30.01 in 10.0 mi South 6.9 mph - N/A   Overcast
8:16 AM 19.4 °F 12.8 °F 15.8 °F 86% 30.01 in 10.0 mi South 4.6 mph - N/A   Overcast
8:36 AM 19.4 °F - 15.8 °F 86% 30.00 in 10.0 mi Calm Calm - N/A   Overcast
8:56 AM 19.4 °F - 15.8 °F 86% 30.00 in 10.0 mi Calm Calm - N/A   Overcast
9:16 AM 19.4 °F - 15.8 °F 86% 30.01 in 10.0 mi Calm Calm - N/A   Overcast
9:36 AM 17.6 °F 10.7 °F 12.2 °F 79% 30.01 in 10.0 mi NE 4.6 mph - N/A   Overcast
9:56 AM 17.6 °F 10.7 °F 15.8 °F 93% 30.02 in 10.0 mi ENE 4.6 mph - N/A   Overcast
10:16 AM 17.6 °F 10.7 °F 15.8 °F 93% 30.03 in 10.0 mi ENE 4.6 mph - N/A   Overcast
10:36 AM 17.6 °F 12.3 °F 12.2 °F 79% 30.04 in 10.0 mi SSE 3.5 mph - N/A   Overcast
10:56 AM 17.6 °F - 12.2 °F 79% 30.05 in 10.0 mi Calm Calm - N/A   Overcast
11:16 AM 19.4 °F - 17.6 °F 93% 30.04 in 10.0 mi Calm Calm - N/A   Overcast
11:36 AM 17.6 °F - 14.0 °F 86% 30.04 in 10.0 mi Calm Calm - N/A   Overcast
11:56 AM 17.6 °F - 12.2 °F 79% 30.05 in 10.0 mi Calm Calm - N/A   Overcast
12:16 PM 17.6 °F - 14.0 °F 86% 30.04 in 10.0 mi Calm Calm - N/A   Partly Cloudy
12:36 PM 17.6 °F 10.7 °F 14.0 °F 86% 30.04 in 10.0 mi ENE 4.6 mph - N/A   Clear
12:56 PM 17.6 °F 12.3 °F 17.6 °F 100% 30.04 in 10.0 mi East 3.5 mph - N/A   Clear
1:16 PM 17.6 °F - 12.2 °F 79% 30.05 in 10.0 mi Calm Calm - N/A   Clear
1:36 PM 17.6 °F 12.3 °F 14.0 °F 86% 30.05 in 10.0 mi East 3.5 mph - N/A   Clear
1:56 PM 17.6 °F - 15.8 °F 93% 30.05 in 5.0 mi Calm Calm - N/A   Clear
2:16 PM 17.6 °F - 14.0 °F 86% 30.05 in 10.0 mi Calm Calm - N/A   Clear
2:36 PM 17.6 °F 12.3 °F 14.0 °F 86% 30.05 in 10.0 mi East 3.5 mph - N/A   Clear
2:56 PM 17.6 °F 12.3 °F 15.8 °F 93% 30.04 in 10.0 mi East 3.5 mph - N/A   Clear
3:16 PM 17.6 °F 10.7 °F 15.8 °F 93% 30.04 in 10.0 mi ESE 4.6 mph - N/A   Clear
3:56 PM 19.4 °F - 15.8 °F 86% 30.04 in 10.0 mi Calm Calm - N/A   Clear
4:16 PM 17.6 °F - 15.8 °F 93% 30.04 in 10.0 mi Calm Calm - N/A   Clear
4:36 PM 17.6 °F 12.3 °F 14.0 °F 86% 30.04 in 10.0 mi East 3.5 mph - N/A   Clear
4:56 PM 15.8 °F 10.2 °F 12.2 °F 86% 30.03 in 10.0 mi East 3.5 mph - N/A   Clear
5:16 PM 15.8 °F 7.2 °F 12.2 °F 86% 30.03 in 10.0 mi ESE 5.8 mph - N/A   Clear
5:56 PM 15.8 °F 4.2 °F 10.4 °F 79% 30.02 in 10.0 mi ESE 9.2 mph - N/A   Clear
6:16 PM 15.8 °F - 10.4 °F 79% 30.02 in 10.0 mi Calm Calm - N/A   Clear
6:36 PM 15.8 °F 4.2 °F 10.4 °F 79% 30.02 in 10.0 mi ESE 9.2 mph - N/A   Clear
6:56 PM 15.8 °F 7.2 °F 10.4 °F 79% 30.02 in 10.0 mi SE 5.8 mph - N/A   Clear
7:16 PM 14.0 °F - 10.4 °F 86% 30.02 in 10.0 mi Calm Calm - N/A   Clear
7:36 PM 12.2 °F - 6.8 °F 79% 30.00 in 10.0 mi Calm Calm - N/A   Clear
7:56 PM 15.8 °F 5.1 °F 10.4 °F 79% 30.01 in 10.0 mi SSE 8.1 mph - N/A   Clear
8:16 PM 15.8 °F 3.4 °F 10.4 °F 79% 30.00 in 10.0 mi SE 10.4 mph - N/A   Clear
8:36 PM 15.8 °F 1.4 °F 10.4 °F 79% 30.01 in 10.0 mi SE 13.8 mph - N/A   Clear
8:56 PM 15.8 °F 5.1 °F 8.6 °F 73% 30.01 in 10.0 mi SSE 8.1 mph - N/A   Clear
9:16 PM 15.8 °F - 10.4 °F 79% 30.02 in 10.0 mi Calm Calm - N/A   Scattered Clouds
9:56 PM 15.8 °F 7.2 °F 10.4 °F 79% 30.01 in 10.0 mi SE 5.8 mph - N/A   Mostly Cloudy
10:16 PM 12.2 °F 1.7 °F 8.6 °F 85% 30.00 in 10.0 mi SE 6.9 mph - N/A   Partly Cloudy
10:36 PM 12.2 °F -3.1 °F 6.8 °F 79% 29.98 in 10.0 mi ESE 13.8 mph - N/A   Clear
10:56 PM 14.0 °F -2.0 °F 10.4 °F 86% 29.97 in 10.0 mi ESE 16.1 mph - N/A   Clear
11:16 PM 15.8 °F 0.3 °F 12.2 °F 86% 29.97 in 10.0 mi ESE 16.1 mph - N/A   Clear
11:36 PM 15.8 °F 1.4 °F 10.4 °F 79% 29.98 in 10.0 mi SE 13.8 mph - N/A   Clear
11:56 PM 12.2 °F -0.2 °F 8.6 °F 85% 29.98 in 10.0 mi SSE 9.2 mph - N/A   Clear